FALCON 9 DEB (48338 NORAD) Tracking and Keplerian Element Data

This shows tracking and keplerian element data for the satellite.

Feedback or suggestion? Click here.




ElementValue
Catalog48338
NameFALCON 9 DEB
Epoch Orbit482
Epoch Day148.03400743
Epoch Year2021
RAAN18.6112
Inclination53.0345
Eccentricity0.0007514
Argument of Perigee258.9465
Mean Anonmoly101.0739
Mean Motion16.48224729
Decay Rate0.11438843
L11 48338U 21036BQ 21148.03400743 .11438843 12566-4 16890-3 0 9998
L22 48338 53.0345 18.6112 0007514 258.9465 101.0739 16.48224729 4823

Live tracking and technical data element details for FALCON 9 DEB (NORAD 48338). FALCON 9 DEB can be tracked NOW for your location showing map with azimuth and elevation plus other details from your city location.

Track the satellite on the map from your city or location and see movement details for azimuth, elevation, latitude, longitude, range, height, and movement on the map or in text.







IsCatalogInMostPopularTable: catalog: 48338, numindb: 43
Update: records affected: 1



GetName: 48338 FALCON 9 DEB

Hit Count: updated at: Sat, 31 Jul 2021 15:42:19 GMT